Time,TemperatureF,DewpointF,PressureIn,WindDirection,WindDirectionDegrees,WindSpeedMPH,WindSpeedGustMPH,Humidity,HourlyPrecipIn,Conditions,Clouds,dailyrainin,SoftwareType,DateUTC
2013-07-29 00:01:00,57.4,49.1,30.07,North,0,0.0,-999.0,74,0.00,,,0.00,open2300 v1.10,2013-07-29 04:01:00,
2013-07-29 00:11:00,57.9,50.0,30.07,North,0,0.0,-999.0,75,0.00,,,0.00,open2300 v1.10,2013-07-29 04:11:00,
2013-07-29 00:21:00,58.5,50.5,30.07,North,0,0.0,-999.0,75,0.00,,,0.00,open2300 v1.10,2013-07-29 04:21:00,
2013-07-29 00:31:00,58.8,50.5,30.07,North,0,0.0,-999.0,74,0.00,,,0.00,open2300 v1.10,2013-07-29 04:31:00,
2013-07-29 00:41:00,58.8,50.5,30.07,North,0,0.0,-999.0,74,0.00,,,0.00,open2300 v1.10,2013-07-29 04:41:00,
2013-07-29 00:51:00,58.6,50.0,30.07,North,0,0.0,-999.0,73,0.00,,,0.00,open2300 v1.10,2013-07-29 04:51:00,
2013-07-29 01:11:00,57.9,49.3,30.07,North,0,0.0,-999.0,73,0.00,,,0.00,open2300 v1.10,2013-07-29 05:11:00,
2013-07-29 01:21:00,57.4,49.1,30.07,North,0,0.0,-999.0,74,0.00,,,0.00,open2300 v1.10,2013-07-29 05:21:00,
2013-07-29 01:31:00,57.0,48.7,30.07,North,0,0.0,-999.0,74,0.00,,,0.00,open2300 v1.10,2013-07-29 05:31:00,
2013-07-29 01:41:00,56.8,48.6,30.07,North,0,0.0,-999.0,74,0.00,,,0.00,open2300 v1.10,2013-07-29 05:41:00,
2013-07-29 01:51:00,56.5,48.2,30.07,North,0,0.0,-999.0,74,0.00,,,0.00,open2300 v1.10,2013-07-29 05:51:00,
2013-07-29 02:01:00,56.5,48.6,30.08,North,0,0.0,-999.0,75,0.00,,,0.00,open2300 v1.10,2013-07-29 06:01:00,
2013-07-29 02:11:00,56.5,48.9,30.07,North,0,0.0,-999.0,76,0.00,,,0.00,open2300 v1.10,2013-07-29 06:11:00,
2013-07-29 02:21:00,56.5,48.9,30.08,North,0,0.0,-999.0,76,0.00,,,0.00,open2300 v1.10,2013-07-29 06:21:00,
2013-07-29 02:31:00,56.3,48.8,30.08,North,0,0.0,-999.0,76,0.00,,,0.00,open2300 v1.10,2013-07-29 06:31:00,
2013-07-29 02:41:00,56.5,49.3,30.08,North,0,0.0,-999.0,77,0.00,,,0.00,open2300 v1.10,2013-07-29 06:41:00,
2013-07-29 02:51:00,56.3,49.1,30.07,North,0,0.0,-999.0,77,0.00,,,0.00,open2300 v1.10,2013-07-29 06:51:00,
2013-07-29 03:01:00,56.1,48.9,30.08,North,0,0.0,-999.0,77,0.00,,,0.00,open2300 v1.10,2013-07-29 07:01:00,
2013-07-29 03:11:00,56.1,49.3,30.08,North,0,0.0,-999.0,78,0.00,,,0.00,open2300 v1.10,2013-07-29 07:11:00,
2013-07-29 03:21:00,56.1,49.3,30.08,North,0,0.0,-999.0,78,0.00,,,0.00,open2300 v1.10,2013-07-29 07:21:00,
2013-07-29 03:31:00,55.9,49.1,30.08,North,0,0.0,-999.0,78,0.00,,,0.00,open2300 v1.10,2013-07-29 07:31:00,
2013-07-29 03:41:00,55.8,48.6,30.08,North,0,0.0,-999.0,77,0.00,,,0.00,open2300 v1.10,2013-07-29 07:41:00,
2013-07-29 03:51:00,55.4,48.2,30.09,North,0,0.0,-999.0,77,0.00,,,0.00,open2300 v1.10,2013-07-29 07:51:00,
2013-07-29 04:01:00,55.2,48.1,30.09,North,0,0.0,-999.0,77,0.00,,,0.00,open2300 v1.10,2013-07-29 08:01:00,
2013-07-29 04:11:00,55.0,47.9,30.09,North,0,0.0,-999.0,77,0.00,,,0.00,open2300 v1.10,2013-07-29 08:11:00,
2013-07-29 04:21:00,54.7,47.9,30.09,North,0,0.0,-999.0,78,0.00,,,0.00,open2300 v1.10,2013-07-29 08:21:00,
2013-07-29 04:31:00,54.5,47.8,30.09,North,0,0.0,-999.0,78,0.00,,,0.00,open2300 v1.10,2013-07-29 08:31:00,
2013-07-29 04:41:00,54.3,47.6,30.09,North,0,0.0,-999.0,78,0.00,,,0.00,open2300 v1.10,2013-07-29 08:41:00,
2013-07-29 04:51:00,54.3,48.0,30.09,North,0,0.0,-999.0,79,0.00,,,0.00,open2300 v1.10,2013-07-29 08:51:00,
2013-07-29 05:01:00,54.3,48.0,30.10,North,0,0.0,-999.0,79,0.00,,,0.00,open2300 v1.10,2013-07-29 09:01:00,
2013-07-29 05:11:00,54.5,48.1,30.10,North,0,0.0,-999.0,79,0.00,,,0.00,open2300 v1.10,2013-07-29 09:11:00,
2013-07-29 05:21:00,54.3,48.0,30.10,North,0,0.0,-999.0,79,0.00,,,0.00,open2300 v1.10,2013-07-29 09:21:00,
2013-07-29 05:31:00,54.1,47.8,30.10,North,0,0.0,-999.0,79,0.00,,,0.00,open2300 v1.10,2013-07-29 09:31:00,
2013-07-29 05:41:00,54.1,48.2,30.10,North,0,0.0,-999.0,80,0.00,,,0.00,open2300 v1.10,2013-07-29 09:41:00,
2013-07-29 05:51:00,54.1,48.2,30.11,North,0,0.0,-999.0,80,0.00,,,0.00,open2300 v1.10,2013-07-29 09:51:00,
2013-07-29 06:01:00,54.0,48.0,30.11,North,0,0.0,-999.0,80,0.00,,,0.00,open2300 v1.10,2013-07-29 10:01:00,
2013-07-29 06:11:00,53.6,47.3,30.11,North,0,0.0,-999.0,79,0.00,,,0.00,open2300 v1.10,2013-07-29 10:11:00,
2013-07-29 06:41:00,53.4,47.5,30.12,North,0,0.0,-999.0,80,0.00,,,0.00,open2300 v1.10,2013-07-29 10:41:00,
2013-07-29 06:51:00,53.8,47.8,30.12,North,0,0.0,-999.0,80,0.00,,,0.00,open2300 v1.10,2013-07-29 10:51:00,
2013-07-29 07:11:00,53.8,48.1,30.13,North,0,0.0,-999.0,81,0.00,,,0.00,open2300 v1.10,2013-07-29 11:11:00,
2013-07-29 07:21:00,54.1,48.5,30.13,North,0,0.0,-999.0,81,0.00,,,0.00,open2300 v1.10,2013-07-29 11:21:00,
2013-07-29 07:41:00,55.2,49.4,30.13,North,0,0.0,-999.0,81,0.00,,,0.00,open2300 v1.10,2013-07-29 11:41:00,
2013-07-29 08:11:00,56.3,49.8,30.13,NNE,22,0.0,-999.0,79,0.00,,,0.00,open2300 v1.10,2013-07-29 12:11:00,
2013-07-29 08:21:00,56.8,50.4,30.14,NNE,22,0.0,-999.0,79,0.00,,,0.00,open2300 v1.10,2013-07-29 12:21:00,
2013-07-29 08:31:00,57.4,50.9,30.14,North,0,0.0,-999.0,79,0.00,,,0.00,open2300 v1.10,2013-07-29 12:31:00,
2013-07-29 08:41:00,58.1,51.6,30.15,WNW,292,0.0,-999.0,79,0.00,,,0.00,open2300 v1.10,2013-07-29 12:41:00,
2013-07-29 09:01:00,58.8,52.0,30.15,WNW,292,0.0,-999.0,78,0.00,,,0.00,open2300 v1.10,2013-07-29 13:01:00,
2013-07-29 09:21:00,61.0,53.8,30.15,WNW,292,0.0,-999.0,77,0.00,,,0.00,open2300 v1.10,2013-07-29 13:21:00,
2013-07-29 09:31:00,61.5,53.9,30.14,WNW,292,1.1,-999.0,76,0.00,,,0.00,open2300 v1.10,2013-07-29 13:31:00,
2013-07-29 09:41:00,62.2,54.2,30.15,WNW,292,0.0,-999.0,75,0.00,,,0.00,open2300 v1.10,2013-07-29 13:41:00,
2013-07-29 09:51:00,63.0,54.9,30.16,NNE,22,0.0,-999.0,75,0.00,,,0.00,open2300 v1.10,2013-07-29 13:51:00,
2013-07-29 10:11:00,64.0,55.2,30.16,WNW,292,0.0,-999.0,73,0.00,,,0.00,open2300 v1.10,2013-07-29 14:11:00,
2013-07-29 10:21:00,64.6,55.4,30.16,WNW,292,0.0,-999.0,72,0.00,,,0.00,open2300 v1.10,2013-07-29 14:21:00,
2013-07-29 10:41:00,66.0,55.5,30.16,WNW,292,0.0,-999.0,69,0.00,,,0.00,open2300 v1.10,2013-07-29 14:41:00,
2013-07-29 10:51:00,66.7,55.4,30.17,WNW,292,0.0,-999.0,67,0.00,,,0.00,open2300 v1.10,2013-07-29 14:51:00,
2013-07-29 11:01:00,67.1,54.9,30.17,North,0,0.0,-999.0,65,0.00,,,0.00,open2300 v1.10,2013-07-29 15:01:00,
2013-07-29 11:11:00,67.6,55.0,30.17,North,0,0.0,-999.0,64,0.00,,,0.00,open2300 v1.10,2013-07-29 15:11:00,
2013-07-29 11:21:00,68.2,55.1,30.18,North,0,0.0,-999.0,63,0.00,,,0.00,open2300 v1.10,2013-07-29 15:21:00,
2013-07-29 11:41:00,69.1,55.5,30.18,NNE,22,0.0,-999.0,62,0.00,,,0.00,open2300 v1.10,2013-07-29 15:41:00,
2013-07-29 11:51:00,69.6,55.6,30.18,North,0,0.0,-999.0,61,0.00,,,0.00,open2300 v1.10,2013-07-29 15:51:00,
2013-07-29 12:21:00,70.7,55.7,30.17,NNE,22,0.0,-999.0,59,0.00,,,0.00,open2300 v1.10,2013-07-29 16:21:00,
2013-07-29 12:31:00,70.7,55.7,30.17,NNE,22,1.3,-999.0,59,0.00,,,0.00,open2300 v1.10,2013-07-29 16:31:00,
2013-07-29 12:41:00,71.2,55.7,30.17,North,0,0.0,-999.0,58,0.00,,,0.00,open2300 v1.10,2013-07-29 16:41:00,
2013-07-29 12:51:00,71.4,55.8,30.17,NNE,22,0.0,-999.0,58,0.00,,,0.00,open2300 v1.10,2013-07-29 16:51:00,
2013-07-29 13:01:00,71.8,55.7,30.17,North,0,0.0,-999.0,57,0.00,,,0.00,open2300 v1.10,2013-07-29 17:01:00,
2013-07-29 13:11:00,72.0,55.8,30.17,NNE,22,0.0,-999.0,57,0.00,,,0.00,open2300 v1.10,2013-07-29 17:11:00,
2013-07-29 13:21:00,72.3,56.2,30.17,North,0,2.9,-999.0,57,0.00,,,0.00,open2300 v1.10,2013-07-29 17:21:00,
2013-07-29 13:31:00,72.5,55.8,30.17,North,0,0.0,-999.0,56,0.00,,,0.00,open2300 v1.10,2013-07-29 17:31:00,
2013-07-29 13:41:00,73.0,56.3,30.17,NNE,22,0.0,-999.0,56,0.00,,,0.00,open2300 v1.10,2013-07-29 17:41:00,
2013-07-29 13:51:00,73.0,55.8,30.17,NNE,22,0.0,-999.0,55,0.00,,,0.00,open2300 v1.10,2013-07-29 17:51:00,
2013-07-29 14:01:00,73.4,56.1,30.17,North,0,0.0,-999.0,55,0.00,,,0.00,open2300 v1.10,2013-07-29 18:01:00,
2013-07-29 14:11:00,73.8,56.5,30.16,WNW,292,0.0,-999.0,55,0.00,,,0.00,open2300 v1.10,2013-07-29 18:11:00,
2013-07-29 14:21:00,74.3,57.0,30.17,East,90,0.0,-999.0,55,0.00,,,0.00,open2300 v1.10,2013-07-29 18:21:00,
2013-07-29 14:31:00,75.0,57.2,30.17,WNW,292,0.0,-999.0,54,0.00,,,0.00,open2300 v1.10,2013-07-29 18:31:00,
2013-07-29 14:41:00,75.0,57.2,30.17,NNE,22,3.1,-999.0,54,0.00,,,0.00,open2300 v1.10,2013-07-29 18:41:00,
2013-07-29 14:51:00,75.2,56.9,30.16,East,90,0.0,-999.0,53,0.00,,,0.00,open2300 v1.10,2013-07-29 18:51:00,
2013-07-29 15:01:00,75.4,57.6,30.16,East,90,0.0,-999.0,54,0.00,,,0.00,open2300 v1.10,2013-07-29 19:01:00,
2013-07-29 15:11:00,76.1,57.7,30.16,North,0,0.0,-999.0,53,0.00,,,0.00,open2300 v1.10,2013-07-29 19:11:00,
2013-07-29 15:21:00,75.9,57.6,30.17,NNE,22,0.0,-999.0,53,0.00,,,0.00,open2300 v1.10,2013-07-29 19:21:00,
2013-07-29 15:41:00,75.7,56.9,30.16,WNW,292,0.0,-999.0,52,0.00,,,0.00,open2300 v1.10,2013-07-29 19:41:00,
2013-07-29 15:51:00,75.7,56.9,30.16,NNE,22,2.2,-999.0,52,0.00,,,0.00,open2300 v1.10,2013-07-29 19:51:00,
2013-07-29 16:01:00,76.8,58.4,30.15,NNE,22,0.0,-999.0,53,0.00,,,0.00,open2300 v1.10,2013-07-29 20:01:00,
2013-07-29 16:11:00,77.5,59.0,30.15,WNW,292,0.0,-999.0,53,0.00,,,0.00,open2300 v1.10,2013-07-29 20:11:00,
2013-07-29 16:21:00,78.4,58.8,30.15,WNW,292,0.0,-999.0,51,0.00,,,0.00,open2300 v1.10,2013-07-29 20:21:00,
2013-07-29 16:31:00,77.9,58.3,30.16,North,0,0.0,-999.0,51,0.00,,,0.00,open2300 v1.10,2013-07-29 20:31:00,
2013-07-29 16:41:00,77.9,58.9,30.16,North,0,0.0,-999.0,52,0.00,,,0.00,open2300 v1.10,2013-07-29 20:41:00,
2013-07-29 16:51:00,77.5,58.5,30.16,WNW,292,0.0,-999.0,52,0.00,,,0.00,open2300 v1.10,2013-07-29 20:51:00,
2013-07-29 17:01:00,77.2,58.2,30.17,NNE,22,0.0,-999.0,52,0.00,,,0.00,open2300 v1.10,2013-07-29 21:01:00,
2013-07-29 17:11:00,76.8,57.9,30.17,NNE,22,0.0,-999.0,52,0.00,,,0.00,open2300 v1.10,2013-07-29 21:11:00,
2013-07-29 17:21:00,76.5,58.0,30.17,WNW,292,0.0,-999.0,53,0.00,,,0.00,open2300 v1.10,2013-07-29 21:21:00,
2013-07-29 17:31:00,75.7,56.9,30.17,North,0,0.0,-999.0,52,0.00,,,0.00,open2300 v1.10,2013-07-29 21:31:00,
2013-07-29 17:41:00,75.7,57.4,30.17,WNW,292,0.0,-999.0,53,0.00,,,0.00,open2300 v1.10,2013-07-29 21:41:00,
2013-07-29 17:51:00,75.4,57.1,30.17,WNW,292,0.0,-999.0,53,0.00,,,0.00,open2300 v1.10,2013-07-29 21:51:00,
2013-07-29 18:01:00,75.4,57.6,30.17,WNW,292,0.0,-999.0,54,0.00,,,0.00,open2300 v1.10,2013-07-29 22:01:00,
2013-07-29 18:11:00,75.7,57.4,30.17,WNW,292,0.0,-999.0,53,0.00,,,0.00,open2300 v1.10,2013-07-29 22:11:00,
2013-07-29 18:21:00,75.7,56.9,30.17,WNW,292,0.0,-999.0,52,0.00,,,0.00,open2300 v1.10,2013-07-29 22:21:00,
2013-07-29 18:51:00,74.8,57.1,30.17,North,0,0.0,-999.0,54,0.00,,,0.00,open2300 v1.10,2013-07-29 22:51:00,
2013-07-29 19:01:00,74.8,57.1,30.17,North,0,0.0,-999.0,54,0.00,,,0.00,open2300 v1.10,2013-07-29 23:01:00,
2013-07-29 19:11:00,75.0,57.7,30.17,North,0,0.0,-999.0,55,0.00,,,0.00,open2300 v1.10,2013-07-29 23:11:00,
2013-07-29 19:21:00,75.0,57.7,30.17,North,0,0.0,-999.0,55,0.00,,,0.00,open2300 v1.10,2013-07-29 23:21:00,
2013-07-29 19:31:00,74.8,57.6,30.17,North,0,0.0,-999.0,55,0.00,,,0.00,open2300 v1.10,2013-07-29 23:31:00,
2013-07-29 19:41:00,74.5,58.2,30.17,North,0,0.0,-999.0,57,0.00,,,0.00,open2300 v1.10,2013-07-29 23:41:00,
2013-07-29 19:51:00,74.1,58.3,30.17,North,0,0.0,-999.0,58,0.00,,,0.00,open2300 v1.10,2013-07-29 23:51:00,
2013-07-29 20:01:00,74.1,57.8,30.18,North,0,0.0,-999.0,57,0.00,,,0.00,open2300 v1.10,2013-07-30 00:01:00,
2013-07-29 20:11:00,73.6,57.3,30.17,North,0,0.0,-999.0,57,0.00,,,0.00,open2300 v1.10,2013-07-30 00:11:00,
2013-07-29 20:21:00,73.2,58.0,30.17,North,0,0.0,-999.0,59,0.00,,,0.00,open2300 v1.10,2013-07-30 00:21:00,
2013-07-29 20:41:00,72.1,57.5,30.17,North,0,0.0,-999.0,60,0.00,,,0.00,open2300 v1.10,2013-07-30 00:41:00,
2013-07-29 20:51:00,72.0,57.8,30.17,North,0,0.0,-999.0,61,0.00,,,0.00,open2300 v1.10,2013-07-30 00:51:00,
2013-07-29 21:01:00,71.4,57.3,30.18,North,0,0.0,-999.0,61,0.00,,,0.00,open2300 v1.10,2013-07-30 01:01:00,
2013-07-29 21:11:00,70.5,56.5,30.18,North,0,0.0,-999.0,61,0.00,,,0.00,open2300 v1.10,2013-07-30 01:11:00,
2013-07-29 21:21:00,69.6,56.0,30.18,North,0,0.0,-999.0,62,0.00,,,0.00,open2300 v1.10,2013-07-30 01:21:00,
2013-07-29 21:31:00,68.9,55.8,30.18,North,0,0.0,-999.0,63,0.00,,,0.00,open2300 v1.10,2013-07-30 01:31:00,
2013-07-29 21:41:00,68.5,55.4,30.18,North,0,0.0,-999.0,63,0.00,,,0.00,open2300 v1.10,2013-07-30 01:41:00,
2013-07-29 21:51:00,68.2,55.5,30.18,North,0,0.0,-999.0,64,0.00,,,0.00,open2300 v1.10,2013-07-30 01:51:00,
2013-07-29 22:01:00,67.6,55.0,30.18,North,0,0.0,-999.0,64,0.00,,,0.00,open2300 v1.10,2013-07-30 02:01:00,
2013-07-29 22:11:00,66.9,54.3,30.19,North,0,0.0,-999.0,64,0.00,,,0.00,open2300 v1.10,2013-07-30 02:11:00,
2013-07-29 22:21:00,66.4,54.2,30.19,North,0,0.0,-999.0,65,0.00,,,0.00,open2300 v1.10,2013-07-30 02:21:00,
2013-07-29 22:41:00,65.1,53.4,30.19,North,0,0.0,-999.0,66,0.00,,,0.00,open2300 v1.10,2013-07-30 02:41:00,
2013-07-29 22:51:00,64.9,53.7,30.19,North,0,0.0,-999.0,67,0.00,,,0.00,open2300 v1.10,2013-07-30 02:51:00,
2013-07-29 23:01:00,64.2,53.0,30.20,North,0,0.0,-999.0,67,0.00,,,0.00,open2300 v1.10,2013-07-30 03:01:00,
2013-07-29 23:11:00,63.9,53.1,30.20,North,0,0.0,-999.0,68,0.00,,,0.00,open2300 v1.10,2013-07-30 03:11:00,
2013-07-29 23:31:00,62.8,52.5,30.20,North,0,0.0,-999.0,69,0.00,,,0.00,open2300 v1.10,2013-07-30 03:31:00,
2013-07-29 23:41:00,62.4,52.5,30.20,North,0,0.0,-999.0,70,0.00,,,0.00,open2300 v1.10,2013-07-30 03:41:00,
2013-07-29 23:51:00,62.2,52.7,30.20,North,0,0.0,-999.0,71,0.00,,,0.00,open2300 v1.10,2013-07-30 03:51:00,